Flag for U.S.A. Weather past 2 weeks in Savannah, Georgia, U.S.A.

Now
67 °F

Clear.


Feels Like: 67 °F
Forecast: 69 / 88 °F
Wind: 5 mph from West

Location: Hunter U. S. Army Airfield

Current Time: Aug 28, 2014 at 3:48:21 AM

Latest Report: Aug 28, 2014 at 2:58 AM


Visibility: 10 mi

Pressure: 30.00 "Hg

Humidity: 96%

Dew point: 66 °F

Location of SavannahLocation

Historic Weather in Savannah — Graph

°F

Savannah temperature yesterday

Maximum temperature yesterday: 88 °F (at 4:58 PM)
Minimum temperature yesterday: 69 °F (at 6:58 AM)
Average temperature yesterday: 78 °F

Past Weeks' High & Low Weather Summary

 TemperatureHumidityPressure
High99 °F (Aug 22, 4:58 PM)100% (Aug 14, 4:58 AM)30.10 "Hg (Aug 14, 4:58 AM)
Low67 °F (Aug 28, 12:58 AM)35% (Aug 23, 3:58 PM)29.81 "Hg (Aug 24, 4:58 AM)
Average82 °F73%29.97 "Hg
* Reported Aug 13 1:58 AM — Aug 28 1:58 AM, Savannah, Weather by CustomWeather, © 2014

Note: Actual official high and low records may vary slightly from our data, if they occured in-between our weather recording intervals... More about our weather records

Advertising

Savannah weather history for previous 24 hours

 ConditionsComfort  
Time TempWeatherWind HumidityBarometerVisibility
1:58 AM
Aug 28
67 °FClear.2 mph93%30.00 "Hg10 mi
12:58 AM67 °FClear.No wind90%30.01 "Hg10 mi
11:58 PM
Aug 27
70 °FClear.No wind85%30.01 "Hg10 mi
10:58 PM72 °FClear.No wind81%30.01 "Hg10 mi
9:58 PM76 °FClear.3 mph70%30.01 "Hg10 mi
8:58 PM77 °FClear.5 mph66%29.99 "Hg10 mi
7:58 PM80 °FSunny.5 mph60%29.98 "Hg10 mi
6:58 PM85 °FSunny.6 mph51%29.97 "Hg10 mi
5:58 PM87 °FSunny.8 mph37%29.97 "Hg10 mi
4:58 PM88 °FSunny.3 mph37%29.97 "Hg10 mi
3:58 PM87 °FSunny.5 mph39%29.98 "Hg10 mi
2:58 PM86 °FSunny.7 mph42%30.00 "Hg10 mi
1:58 PM85 °FSunny.9 mph43%30.02 "Hg10 mi
12:58 PM84 °FPassing clouds.12 mph46%30.03 "Hg10 mi
11:58 AM83 °FSunny.9 mph49%30.04 "Hg10 mi
10:58 AM81 °FSunny.13 mph53%30.05 "Hg10 mi
9:58 AM78 °FSunny.8 mph62%30.04 "Hg10 mi
8:58 AM74 °FSunny.5 mph74%30.03 "Hg10 mi
7:58 AM71 °FSunny.5 mph81%30.03 "Hg10 mi
6:58 AM69 °FClear.3 mph86%30.02 "Hg10 mi
5:58 AM70 °FClear.6 mph85%29.99 "Hg10 mi
4:58 AM72 °FClear.5 mph81%29.98 "Hg10 mi
3:58 AM73 °FClear.5 mph79%29.98 "Hg10 mi
Weather by CustomWeather, © 2014

See weather overviewHow to use our weather pages